This is the latest recevied weather packets stored in our database for station/object KI4HRG. If no packets are shown the sender has not sent any weather packets the latest 10 day(s).
| Time | Temp. | Humidity | Pressure | Rain* | Wind** | Luminosity | Snow |
|---|---|---|---|---|---|---|---|
| 1787877858 | 26.11° C | 90% | 1014.1 hPa | 0 mm | - | 0 W/m² | - |
| 1787877553 | 26.11° C | 89% | 1014.1 hPa | 0 mm | - | 0 W/m² | - |
| 1787877248 | 26.11° C | 89% | 1014.2 hPa | 0 mm | - | 0 W/m² | - |
| 1787876943 | 26.67° C | 89% | 1014 hPa | 0 mm | - | 0 W/m² | - |
| 1787876639 | 26.67° C | 88% | 1013.8 hPa | 0 mm | - | 0 W/m² | - |
| 1787876338 | 26.67° C | 88% | 1013.8 hPa | 0 mm | - | 0 W/m² | - |
| 1787876037 | 26.67° C | 87% | 1013.7 hPa | 0 mm | - | 1 W/m² | - |
| 1787875732 | 26.67° C | 86% | 1013.7 hPa | 0 mm | - | 2 W/m² | - |
| 1787875431 | 26.67° C | 86% | 1014.1 hPa | 0 mm | - | 4 W/m² | - |
| 1787875130 | 27.22° C | 85% | 1013.9 hPa | 0 mm | - | 6 W/m² | - |
| 1787874825 | 27.22° C | 85% | 1013.9 hPa | 0 mm | - | 6 W/m² | - |
| 1787874523 | 27.22° C | 84% | 1013.8 hPa | 0 mm | - | 7 W/m² | - |
| 1787874219 | 27.22° C | 84% | 1013.8 hPa | 0 mm | - | 8 W/m² | - |
| 1787873914 | 27.22° C | 84% | 1013.9 hPa | 0 mm | - | 10 W/m² | - |
| 1787873613 | 27.78° C | 83% | 1013.9 hPa | 0 mm | - | 14 W/m² | - |
| 1787873309 | 27.78° C | 83% | 1013.9 hPa | 0 mm | - | 18 W/m² | - |
| 1787873007 | 27.78° C | 82% | 1014.2 hPa | 0 mm | - | 17 W/m² | - |
| 1787872703 | 27.78° C | 82% | 1014.1 hPa | 0 mm | - | 22 W/m² | - |
| 1787872399 | 27.78° C | 81% | 1013.9 hPa | 0 mm | - | 26 W/m² | - |
| 1787872093 | 28.33° C | 81% | 1014.2 hPa | 0 mm | - | 27 W/m² | - |
| 1787871787 | 28.33° C | 81% | 1013.9 hPa | 0 mm | - | 29 W/m² | - |
| 1787871483 | 28.33° C | 81% | 1014.1 hPa | 0 mm | - | 31 W/m² | - |
| 1787871178 | 28.33° C | 80% | 1013.9 hPa | 0 mm | - | 34 W/m² | - |
| 1787870877 | 28.33° C | 80% | 1014 hPa | 0 mm | - | 37 W/m² | - |
| 1787870572 | 28.33° C | 79% | 1013.9 hPa | 0 mm | - | 44 W/m² | - |
* Rain latest hour (hover to see other rain measurements)
** Current wind speed in m/s (hover to see current wind gust speed)